Location: Newark
(43.9494°N, 6.8108°E)
Time: 07:03:38
(UTC+00:00)

A-11 Canister half - Pass Details

Date: 01 November 2019
Orbit: 1514 x 1686 km, 47.2° (Epoch: 13 November)

Event Time Altitude Azimuth Distance (km) Brightness Sun altitude
Rises 05:28:04 0° 294° (WNW) 4,844 - -7.8°
Exits shadow 05:30:57 - 288° (WNW) 4,008 10.5 -7.3°
Reaches altitude 10° 05:31:36 10° 286° (WNW) 3,830 10.4 -7.2°
Maximum altitude 05:39:53 34° 227° (SW) 2,388 9.8 -5.8°
Drops below altitude 10° 05:47:56 10° 167° (SSE) 3,705 11.4 -4.4°
Sets 05:51:19 0° 158° (SSE) 4,668 12.1 -3.8°
